SES-10

Last updated on Thu Jul 03 2025 00:02:47 GMT+0000 (Coordinated Universal Time)

1 42432U 17017A 25183.55332883 -.00000265 00000+0 00000+0 0 9999 2 42432 0.0117 20.7488 0002632 80.5964 311.7786 1.00269859 30231
UTC large
Height (km)
Speed (km/s)
/
Latitude / Longitude
Inclination (degrees)
Orbital Period (minutes)
Azimuth
Elevation
Range (km)
Doppler Factor

Next 0 passes for location: London (51.5072 / 0.1276)

Sorry there are no passes over London.